Flag for U.S.A. Weather past 2 weeks in Hudson, Wisconsin, U.S.A.

Now
62 °F

Broken clouds.


Feels Like: 62 °F
Forecast: 48 / 67 °F
Wind: 12 mph from Northwest

Location: St. Paul Downtown Holman Field


UV Index: 3 (Moderate)

Visibility: 10 mi


Pressure: 29.92 "Hg

Humidity: 62%

Dew point: 49 °F

Location of HudsonLocation

Historic Weather in Hudson

°F

Hudson temperature yesterday

Maximum temperature yesterday: 74 °F (at 2:53 PM)
Minimum temperature yesterday: 45 °F (at 7:02 AM)
Average temperature yesterday: 60 °F

Past Weeks' High & Low Weather Summary

 TemperatureHumidityPressure
High74 °F (Apr 20, 2:53 PM)100% (Apr 7, 3:53 AM)30.41 "Hg (Apr 7, 3:53 AM)
Low19 °F (Apr 15, 6:53 AM)16% (Apr 10, 2:53 PM)29.49 "Hg (Apr 9, 10:53 PM)
Average45 °F61%29.97 "Hg
* Reported Apr 6 9:53 AM — Apr 21 9:53 AM, Hudson, Weather by CustomWeather, © 2014

Note: Actual official high and low records may vary slightly from our data, if they occured in-between our weather recording intervals... More about our weather records

Advertising

Historic Weather Conditions — Data for Previous 24 hours

 ConditionsComfort  
Time TempWeatherWind HumidityBarometerVisibility
9:53 AM
Apr 21
62 °FBroken clouds.12 mph62%29.92 "Hg10 mi
8:53 AM58 °FLight rain. Broken clouds.6 mph87%29.93 "Hg9 mi
7:53 AM58 °FOvercast.No wind84%29.92 "Hg9 mi
6:53 AM58 °FClear.12 mph90%29.90 "Hg8 mi
6:02 AM58 °FLight rain. Mostly cloudy.17 mph87%29.85 "Hg10 mi
5:53 AM58 °FLight rain. Overcast.22 mph87%29.83 "Hg7 mi
4:53 AM56 °FLight rain. Fog.7 mph97%29.88 "Hg5 mi
3:53 AM57 °FLight rain. Fog.18 mph93%29.85 "Hg4 mi
2:53 AM57 °FLight rain. Partly cloudy.9 mph90%29.91 "Hg8 mi
1:53 AM57 °FPassing clouds.3 mph90%29.93 "Hg9 mi
12:53 AM56 °FPassing clouds.7 mph90%29.93 "Hg8 mi
11:53 PM
Apr 20
57 °FClear.No wind83%29.93 "Hg8 mi
10:53 PM57 °FPassing clouds.7 mph83%29.93 "Hg10 mi
9:53 PM60 °FOvercast.No wind75%29.94 "Hg10 mi
8:53 PM62 °FSunny.5 mph67%29.95 "Hg10 mi
7:53 PM64 °FSunny.7 mph63%29.93 "Hg10 mi
6:53 PM69 °FSunny.6 mph47%29.94 "Hg10 mi
5:53 PM73 °FSunny.6 mph40%29.94 "Hg10 mi
4:53 PM74 °FSunny.8 mph38%29.95 "Hg10 mi
3:53 PM74 °FSunny.3 mph25%29.96 "Hg10 mi
2:53 PM74 °FScattered clouds.7 mph25%29.97 "Hg10 mi
1:53 PM72 °FSunny.5 mph35%29.98 "Hg10 mi
12:53 PM68 °FSunny.6 mph45%30.01 "Hg10 mi
11:53 AM67 °FSunny.6 mph39%30.03 "Hg10 mi
Weather by CustomWeather, © 2014

See weather overview